When you browse on this site, cookies collect data to enhance your experience and personalize the content and advertising you see.
Visit our Privacy Policy to learn more. By continuing to use the site, you agree to this use of cookies and data.
  • In Austria
  • List of Countries
  • For 7 days
  • Water Temperature
  • Satellite Maps
  • Weather Map
  • News
  • Weather Widgets
  • user-avatar
    Login

    Hourly Weather Manama

    Today, 22 April, Monday

    Time Temperature Precipitation Wind Pressure Humidity
    00:00 +27°C° 0.1 mm 3 mps 754 mmHg 51%
    01:00 +27°C° 0.1 mm 2 mps 754 mmHg 51%
    02:00 +27°C° 0.1 mm 2 mps 753 mmHg 52%
    03:00 +26°C° 0.1 mm 2 mps 753 mmHg 53%
    04:00 +26°C° 0.1 mm 2 mps 753 mmHg 53%
    05:00 +26°C° 0.1 mm 2 mps 754 mmHg 53%
    06:00 +26°C° 0.1 mm 1 mps 754 mmHg 54%
    07:00 +27°C° 0.2 mm 2 mps 754 mmHg 51%
    08:00 +28°C° 0.2 mm 2 mps 755 mmHg 48%
    09:00 +29°C° 0.2 mm 2 mps 755 mmHg 44%
    10:00 +30°C° 0 mm 5 mps 756 mmHg 41%
    11:00 +32°C° 0 mm 7 mps 756 mmHg 38%
    12:00 +33°C° 0 mm 9 mps 756 mmHg 35%
    13:00 +32°C° 0.2 mm 10 mps 756 mmHg 39%
    14:00 +29°C° 0.2 mm 11 mps 756 mmHg 44%
    15:00 +27°C° 0.2 mm 12 mps 757 mmHg 48%
    16:00 +27°C° 0.1 mm 11 mps 757 mmHg 50%
    17:00 +26°C° 0.1 mm 11 mps 757 mmHg 52%
    18:00 +24°C° 0.1 mm 11 mps 757 mmHg 53%
    19:00 +24°C° 0.1 mm 11 mps 758 mmHg 52%
    20:00 +24°C° 0.1 mm 11 mps 758 mmHg 50%
    21:00 +24°C° 0.1 mm 11 mps 758 mmHg 48%
    22:00 +24°C° 0.2 mm 11 mps 758 mmHg 47%
    23:00 +24°C° 0.2 mm 10 mps 758 mmHg 46%

    Tomorrow, 23 April, Tuesday

    Time Temperature Precipitation Wind Pressure Humidity
    00:00 +24°C° 0.2 mm 10 mps 759 mmHg 45%
    01:00 +24°C° 0 mm 11 mps 759 mmHg 45%
    02:00 +24°C° 0 mm 11 mps 759 mmHg 45%
    03:00 +24°C° 0 mm 12 mps 759 mmHg 45%
    04:00 +24°C° 0 mm 11 mps 759 mmHg 44%
    05:00 +24°C° 0 mm 11 mps 760 mmHg 44%
    06:00 +23°C° 0 mm 11 mps 760 mmHg 43%
    07:00 +24°C° 0 mm 10 mps 761 mmHg 40%
    08:00 +26°C° 0 mm 10 mps 761 mmHg 37%
    09:00 +26°C° 0 mm 10 mps 762 mmHg 34%
    10:00 +27°C° 0 mm 10 mps 762 mmHg 33%
    11:00 +27°C° 0 mm 10 mps 762 mmHg 31%
    12:00 +27°C° 0 mm 11 mps 762 mmHg 30%
    13:00 +27°C° 0 mm 11 mps 761 mmHg 30%
    14:00 +27°C° 0 mm 11 mps 761 mmHg 31%
    15:00 +27°C° 0 mm 11 mps 761 mmHg 31%
    16:00 +26°C° 0 mm 11 mps 761 mmHg 33%
    17:00 +26°C° 0 mm 11 mps 761 mmHg 35%
    18:00 +24°C° 0 mm 11 mps 761 mmHg 36%
    19:00 +24°C° 0 mm 10 mps 761 mmHg 37%
    20:00 +24°C° 0 mm 9 mps 762 mmHg 38%
    21:00 +24°C° 0 mm 8 mps 762 mmHg 39%
    22:00 +24°C° 0 mm 7 mps 762 mmHg 40%
    23:00 +24°C° 0 mm 7 mps 762 mmHg 40%

    Day after tomorrow, 24 April, Wednesday

    Time Temperature Precipitation Wind Pressure Humidity
    00:00 +24°C° 0 mm 7 mps 762 mmHg 41%
    01:00 +23°C° 0 mm 7 mps 762 mmHg 41%
    02:00 +23°C° 0 mm 7 mps 762 mmHg 41%
    03:00 +23°C° 0 mm 7 mps 762 mmHg 40%
    04:00 +23°C° 0 mm 7 mps 762 mmHg 44%
    05:00 +23°C° 0 mm 8 mps 762 mmHg 47%
    06:00 +23°C° 0 mm 8 mps 762 mmHg 50%
    07:00 +24°C° 0 mm 8 mps 763 mmHg 44%
    08:00 +26°C° 0 mm 9 mps 763 mmHg 39%
    09:00 +27°C° 0 mm 9 mps 763 mmHg 33%
    10:00 +27°C° 0 mm 9 mps 763 mmHg 33%
    11:00 +27°C° 0 mm 10 mps 763 mmHg 32%
    12:00 +28°C° 0 mm 10 mps 763 mmHg 31%
    13:00 +28°C° 0 mm 10 mps 762 mmHg 31%
    14:00 +28°C° 0 mm 11 mps 762 mmHg 31%
    15:00 +27°C° 0 mm 11 mps 762 mmHg 31%
    16:00 +27°C° 0 mm 11 mps 762 mmHg 33%
    17:00 +26°C° 0 mm 10 mps 762 mmHg 36%
    18:00 +26°C° 0 mm 10 mps 761 mmHg 38%
    19:00 +24°C° 0 mm 9 mps 762 mmHg 39%
    20:00 +24°C° 0 mm 8 mps 762 mmHg 40%
    21:00 +24°C° 0 mm 8 mps 762 mmHg 41%
    22:00 +24°C° 0 mm 8 mps 762 mmHg 41%
    23:00 +24°C° 0 mm 8 mps 761 mmHg 41%

    25 April, Thursday

    Time Temperature Precipitation Wind Pressure Humidity
    00:00 +24°C° 0 mm 8 mps 761 mmHg 41%
    01:00 +24°C° 0 mm 8 mps 761 mmHg 41%
    02:00 +24°C° 0 mm 8 mps 761 mmHg 41%
    03:00 +24°C° 0 mm 8 mps 761 mmHg 40%
    04:00 +24°C° 0 mm 8 mps 761 mmHg 40%
    05:00 +24°C° 0 mm 8 mps 761 mmHg 40%
    06:00 +24°C° 0 mm 8 mps 761 mmHg 39%
    07:00 +26°C° 0 mm 8 mps 762 mmHg 36%
    08:00 +27°C° 0 mm 8 mps 762 mmHg 32%
    09:00 +28°C° 0 mm 8 mps 762 mmHg 29%
    10:00 +28°C° 0 mm 8 mps 762 mmHg 28%
    11:00 +29°C° 0 mm 8 mps 762 mmHg 27%
    12:00 +31°C° 0 mm 8 mps 762 mmHg 26%
    13:00 +29°C° 0 mm 8 mps 761 mmHg 27%
    14:00 +29°C° 0 mm 8 mps 761 mmHg 28%
    15:00 +28°C° 0 mm 8 mps 760 mmHg 30%
    16:00 +28°C° 0 mm 8 mps 760 mmHg 32%
    17:00 +27°C° 0 mm 7 mps 760 mmHg 35%
    18:00 +26°C° 0 mm 7 mps 760 mmHg 37%
    19:00 +26°C° 0 mm 6 mps 760 mmHg 38%
    20:00 +26°C° 0 mm 5 mps 761 mmHg 38%
    21:00 +26°C° 0 mm 5 mps 761 mmHg 39%
    22:00 +26°C° 0 mm 5 mps 760 mmHg 39%
    23:00 +26°C° 0 mm 5 mps 760 mmHg 38%

    26 April, Friday

    Time Temperature Precipitation Wind Pressure Humidity
    00:00 +25°C° 0 mm 5 mps 760 mmHg 38%
    01:00 +25°C° 0 mm 5 mps 760 mmHg 38%
    02:00 +25°C° 0 mm 5 mps 759 mmHg 38%
    03:00 +24°C° 0 mm 6 mps 759 mmHg 38%
    04:00 +24°C° 0 mm 6 mps 760 mmHg 38%
    05:00 +24°C° 0 mm 6 mps 760 mmHg 38%
    06:00 +24°C° 0 mm 6 mps 760 mmHg 38%
    07:00 +26°C° 0 mm 5 mps 761 mmHg 32%
    08:00 +28°C° 0 mm 5 mps 761 mmHg 26%
    09:00 +29°C° 0 mm 5 mps 761 mmHg 20%
    10:00 +30°C° 0 mm 5 mps 761 mmHg 19%
    11:00 +30°C° 0 mm 5 mps 761 mmHg 18%
    12:00 +32°C° 0 mm 5 mps 761 mmHg 16%
    13:00 +32°C° 0 mm 5 mps 760 mmHg 19%
    14:00 +32°C° 0 mm 6 mps 760 mmHg 21%
    15:00 +32°C° 0 mm 6 mps 760 mmHg 24%
    16:00 +30°C° 0 mm 6 mps 760 mmHg 27%
    17:00 +29°C° 0 mm 6 mps 760 mmHg 31%
    18:00 +28°C° 0 mm 6 mps 760 mmHg 35%
    19:00 +27°C° 0 mm 5 mps 760 mmHg 36%
    20:00 +27°C° 0 mm 4 mps 761 mmHg 38%
    21:00 +27°C° 0 mm 4 mps 761 mmHg 39%
    22:00 +27°C° 0 mm 4 mps 761 mmHg 38%
    23:00 +27°C° 0 mm 4 mps 760 mmHg 37%

    27 April, Saturday

    Time Temperature Precipitation Wind Pressure Humidity
    00:00 +26°C° 0 mm 4 mps 760 mmHg 36%
    01:00 +26°C° 0 mm 4 mps 760 mmHg 35%
    02:00 +26°C° 0 mm 4 mps 760 mmHg 34%
    03:00 +26°C° 0 mm 4 mps 759 mmHg 32%
    04:00 +26°C° 0 mm 4 mps 760 mmHg 33%
    05:00 +26°C° 0 mm 3 mps 760 mmHg 33%
    06:00 +26°C° 0 mm 3 mps 760 mmHg 33%
    07:00 +27°C° 0 mm 3 mps 761 mmHg 30%
    08:00 +28°C° 0 mm 3 mps 761 mmHg 27%
    09:00 +30°C° 0 mm 3 mps 761 mmHg 23%
    10:00 +30°C° 0 mm 4 mps 761 mmHg 22%
    11:00 +32°C° 0 mm 4 mps 761 mmHg 20%
    12:00 +32°C° 0 mm 4 mps 761 mmHg 19%
    13:00 +32°C° 0 mm 4 mps 761 mmHg 19%
    14:00 +32°C° 0 mm 4 mps 760 mmHg 20%
    15:00 +32°C° 0 mm 4 mps 760 mmHg 20%
    16:00 +32°C° 0 mm 4 mps 760 mmHg 22%
    17:00 +30°C° 0 mm 4 mps 760 mmHg 24%
    18:00 +30°C° 0 mm 4 mps 760 mmHg 26%
    19:00 +29°C° 0 mm 4 mps 760 mmHg 27%
    20:00 +29°C° 0 mm 4 mps 760 mmHg 28%
    21:00 +29°C° 0 mm 4 mps 761 mmHg 29%
    22:00 +29°C° 0 mm 4 mps 760 mmHg 30%
    23:00 +29°C° 0 mm 4 mps 760 mmHg 31%
    Show more